Friday, July 01, 2016
00:49 UTC
  |  Log In   |  Register Free
Airport Search:

Grant Co International Airport
(KMWH)

FAA data valid effective May 26 2016 - Jul 21 2016 (unless otherwise noted).

 
 
 
 
 
 
 
 
 
 
 
 
 
 
Summary: Grant Co International (MWH)

Weather Summary


METAR for KMWH is not available. Closest METAR is for KEPH
KMWH  (most recent observation was updatred at 30:23 UTC)
302352Z 18009KT 10SM CLR 33/01 A2991 RMK AO2 SLP119 T03330011 10339 20289 58021

KEPH  (10.0 nm SE)   (most recent observation was updated at 30:23 UTC)
302353Z AUTO 23014KT 10SM CLR 33/06 A2989 RMK AO2 SLP111 T03330056 10333 20289 58021

TAF for KMWH is not available.
KMWH
302323Z 0100/0124 22010G15KT P6SM SKC FM010400 29008KT P6SM SKC FM011000 VRB04KT P6SM SCT150 FM011800 21007KT P6SM SCT100

GlobalAir.com is loading additional information.
 Current Weather at MWH
92.0 F° (33.3 C°)
Fair
South winds at 9.2 mph
Pressure:
29.93 in
Humidity:
11%
Wind:
South at 9.2 MPH (8 KT)
Dew Point:
30.9 F° (-0.6 C°)
Visibility:
10.00 mi
MWH NOAA Radar

Communications Summary


CTAF118.25
UNICOM122.95
ATIS119.05
WX ASOS
GRANT COUNTY GROUND121.9 [0600-2200]
GRANT COUNTY TOWER118.25 (EAST)
128.0 (WEST) [0600-2200]
GRANT COUNTY APPROACH126.4
134.35
379.95
GRANT COUNTY DEPARTURE126.4
134.35
379.95
CLEARANCE DELIVERYN/A
EMERGENCY121.5
IC126.4
379.95

Terminal Procedures Summary


Airport Diagram

Approaches
More Approaches
Departures
Special Minimums

Closest Alternate Airports with Instrument Procedures

KEPH - Ephrata Municipal - 11.6 nm NW from MWH

WN95 - Brown Boy - 30.4 nm SW from MWH

WN95 - Brown Boy - 30.4 nm SW from MWH

KEAT - Pangborn Memorial - 43.6 nm NW from MWH

5WA5 - Ross Private Strip - 47.4 nm NW from MWH

5WA5 - Ross Private Strip - 47.4 nm NW from MWH

KELN - Bowers Field - 58.3 nm SW from MWH

KRLD - Richland - 62.5 nm SE from MWH

KPSC - Tri-Cities - 66 nm SE from MWH

KYKM - Yakima Air Terminal/Mcallister Field - 72.9 nm SW from MWH

Find All Airport Services Find A Hotel Find A Rental Car Find A Golf Course Find A Restaurant $100 Hamburger



FBO's on the Field
FBO Company Facility Photos Services Transportation Aviation Fuel Prices: Prices include tax
Catering Weather Repair Courtesy Rental Type 100LL JetA JetA+ MOGAS 8087
 
Columbia Pacific Aviation

Currently rated 4.2 by 1 person
FS:Avfuel
Last Updated: Jun-13
Login to update fuel prices
SS:
Contact Columbia Pacific AviationMore FBO Information
 
Million Air Moses Lake

This FBO has not yet been rated
FS:Avfuel
Last Updated: Jun-21
Login to update fuel prices
SS:
Contact Million Air Moses LakeMore FBO Information
 
Add another FBO Facility Photos Catering Weather Repair Courtesy Rental Type 100LL JetA JetA+ MOGAS 8087
Services Transportation Aviation Fuel Prices: Prices include tax


model-print
model-print
model-print
model-print